CW1020 Weather Reports


time (UTC)temp
C
wind
direction
speed
KPH
gust
KPH
rain 1hr
cm
rain 24hr
cm
rain mn
cm
humidity
%
barometer
mb
20260504235004 11 287 19.3 25.7 0.00 0.00 0.00 62 1013.7
20260504234503 11 275 16.1 29.0 0.00 0.00 0.00 62 1013.7
20260504234003 11 275 14.5 19.3 0.00 0.00 0.00 63 1013.6
20260504233004 11 290 14.5 16.1 0.00 0.00 0.00 64 1013.8
20260504232503 11 317 14.5 30.6 0.00 0.00 0.00 63 1013.6
20260504232003 11 289 16.1 17.7 0.00 0.00 0.00 63 1013.8
20260504231004 11 309 12.9 22.5 0.00 0.00 0.00 62 1013.7
20260504225503 11 282 12.9 30.6 0.00 0.00 0.00 61 1013.8
20260504224503 11 287 14.5 30.6 0.00 0.00 0.00 60 1013.9
20260504224003 11 276 16.1 24.1 0.00 0.00 0.00 59 1013.9
20260504223504 11 273 17.7 20.9 0.00 0.00 0.00 60 1013.9
20260504223003 11 282 16.1 27.4 0.00 0.00 0.00 60 1013.9
20260504222504 11 302 16.1 29.0 0.00 0.00 0.00 62 1014.0
20260504222004 11 295 16.1 22.5 0.00 0.00 0.00 63 1014.1
20260504221503 11 298 14.5 19.3 0.00 0.00 0.00 62 1014.0
20260504220004 11 314 19.3 27.4 0.00 0.00 0.00 62 1014.2
20260504215003 11 320 14.5 27.4 0.00 0.00 0.00 63 1014.2
20260504214504 11 311 11.3 27.4 0.00 0.00 0.00 64 1014.4
20260504214003 11 317 12.9 16.1 0.00 0.00 0.00 64 1014.5
20260504213503 10 313 14.5 17.7 0.00 0.00 0.00 69 1014.6
20260504213004 10 307 12.9 22.5 0.00 0.00 0.00 71 1014.8
20260504212502 10 304 12.9 19.3 0.00 0.00 0.00 71 1014.8
20260504211502 9 314 16.1 27.4 0.00 0.00 0.00 73 1015.0
20260504210003 9 311 14.5 25.7 0.00 0.00 0.00 74 1015.0
20260504205502 9 310 16.1 20.9 0.00 0.00 0.00 73 1015.0
20260504205003 9 311 16.1 19.3 0.00 0.00 0.00 74 1014.9
20260504204503 9 311 14.5 22.5 0.00 0.00 0.00 74 1014.8
20260504204002 9 317 14.5 24.1 0.00 0.00 0.00 74 1014.9
20260504203502 9 317 16.1 19.3 0.00 0.00 0.00 75 1014.9
20260504203002 9 319 14.5 24.1 0.00 0.00 0.00 76 1014.8
20260504202502 9 317 14.5 22.5 0.00 0.00 0.00 75 1014.8
20260504202002 9 313 12.9 25.7 0.00 0.00 0.00 75 1014.7
20260504201502 9 322 11.3 17.7 0.00 0.00 0.00 76 1014.7
20260504201002 9 309 9.7 14.5 0.00 0.00 0.00 76 1014.7
20260504200502 8 314 8.0 14.5 0.00 0.00 0.00 77 1014.8
20260504200003 8 316 8.0 14.5 0.00 0.00 0.00 79 1015.1
20260504195502 8 296 11.3 12.9 0.00 0.00 0.00 78 1015.3
20260504195002 8 290 12.9 16.1 0.00 0.00 0.00 80 1015.3
20260504194503 8 292 16.1 17.7 0.00 0.00 0.00 80 1015.3
20260504194002 8 284 16.1 22.5 0.00 0.00 0.00 79 1015.2
20260504193502 8 264 16.1 20.9 0.00 0.00 0.00 79 1015.4
20260504193002 8 266 14.5 25.7 0.00 0.00 0.00 80 1015.4
20260504192003 7 247 14.5 22.5 0.00 0.00 0.00 83 1015.3
20260504191503 7 276 9.7 17.7 0.00 0.00 0.00 84 1015.4
20260504190502 7 257 8.0 14.5 0.00 0.00 0.00 82 1015.4
20260504190003 7 301 12.9 9.7 0.00 0.00 0.00 81 1015.4
20260504185502 7 266 12.9 24.1 0.00 0.00 0.00 79 1015.4
20260504185002 7 254 12.9 17.7 0.00 0.00 0.00 79 1015.3
20260504184503 7 257 12.9 19.3 0.00 0.00 0.00 79 1015.4
20260504184002 7 245 12.9 22.5 0.00 0.00 0.00 80 1015.3
20260504183003 7 255 11.3 24.1 0.00 0.00 0.00 79 1015.2
20260504182502 7 231 12.9 19.3 0.00 0.00 0.00 80 1015.3
20260504181503 7 242 12.9 22.5 0.00 0.00 0.00 79 1015.2
20260504180502 7 259 9.7 12.9 0.00 0.00 0.00 80 1015.2
20260504180004 7 257 11.3 11.3 0.00 0.00 0.00 79 1015.3
20260504175502 7 268 9.7 22.5 0.00 0.00 0.00 80 1015.3
20260504175003 7 256 8.0 17.7 0.00 0.00 0.00 80 1015.4
20260504174502 7 273 4.8 14.5 0.00 0.00 0.00 80 1015.5
20260504173502 7 285 9.7 11.3 0.00 0.00 0.00 80 1015.2
20260504173003 7 261 9.7 16.1 0.00 0.00 0.00 80 1015.1
20260504172502 7 240 11.3 14.5 0.00 0.00 0.00 80 1015.1
20260504172003 7 251 11.3 19.3 0.00 0.00 0.00 80 1015.1
20260504171502 7 252 8.0 19.3 0.00 0.00 0.00 80 1015.0
20260504171003 7 254 8.0 16.1 0.00 0.00 0.00 81 1014.9
20260504170503 6 261 11.3 14.5 0.00 0.00 0.00 81 1014.9
20260504151003 6 314 11.3 22.5 0.00 0.00 0.00 83 1014.9
20260504150502 6 321 8.0 20.9 0.00 0.00 0.00 83 1014.9
20260504141003 5 308 11.3 19.3 0.00 0.00 0.00 82 1014.5
20260504140502 6 316 11.3 19.3 0.00 0.00 0.00 82 1014.5
20260504130502 6 307 8.0 14.5 0.00 0.00 0.00 79 1014.0
20260504100503 7 299 4.8 11.3 0.00 0.00 0.00 78 1014.0
20260504082003 7 311 16.1 22.5 0.00 0.00 0.00 77 1014.3
20260504081502 7 316 14.5 24.1 0.00 0.00 0.00 76 1014.3
20260504081003 7 314 14.5 25.7 0.00 0.00 0.00 76 1014.4
20260504080504 7 315 12.9 20.9 0.00 0.00 0.00 76 1014.5
20260504050504 9 303 8.0 6.4 0.00 0.00 0.00 72 1014.3
20260504050005 10 310 6.4 14.5 0.00 0.00 0.00 72 1014.1
20260504045503 10 321 3.2 14.5 0.00 0.00 0.00 71 1014.0
20260504044003 10 321 3.2 9.7 0.00 0.00 0.00 71 1013.9
20260504043503 10 330 6.4 3.2 0.00 0.00 0.00 71 1013.8
20260504043003 10 279 8.0 14.5 0.00 0.00 0.00 71 1013.8
20260504042503 10 317 9.7 12.9 0.00 0.00 0.00 71 1013.6
20260504042004 10 307 12.9 20.9 0.00 0.00 0.00 71 1013.5
20260504041003 10 316 12.9 24.1 0.00 0.00 0.00 71 1013.3
20260504040503 10 313 11.3 19.3 0.00 0.00 0.00 71 1013.2
20260504040004 10 308 9.7 17.7 0.00 0.00 0.00 70 1013.2
20260504035003 11 299 9.7 12.9 0.00 0.00 0.00 69 1013.0
20260504034003 11 303 12.9 19.3 0.00 0.00 0.00 68 1012.9
20260504033504 11 291 17.7 19.3 0.00 0.00 0.00 67 1012.8
20260504033004 12 282 19.3 25.7 0.00 0.00 0.00 67 1012.7
20260504032503 12 288 16.1 25.7 0.00 0.00 0.00 67 1012.5
20260504031503 12 290 14.5 22.5 0.00 0.00 0.00 66 1012.3
20260504031003 12 287 14.5 20.9 0.00 0.00 0.00 66 1012.2
20260504030503 12 297 14.5 29.0 0.00 0.00 0.00 66 1012.3
20260504030003 12 291 16.1 22.5 0.00 0.00 0.00 66 1012.3
20260504025503 12 302 16.1 24.1 0.00 0.00 0.00 65 1012.0
20260504025004 13 299 16.1 22.5 0.00 0.00 0.00 65 1012.2
20260504023503 13 315 12.9 24.1 0.00 0.00 0.00 65 1012.0
20260504023004 13 286 12.9 19.3 0.00 0.00 0.00 64 1012.1
20260504022504 13 277 12.9 16.1 0.00 0.00 0.00 64 1012.2
20260504022003 13 302 12.9 25.7 0.00 0.00 0.00 64 1012.1
20260504021503 13 304 14.5 20.9 0.00 0.00 0.00 63 1011.9
20260504021003 13 306 14.5 19.3 0.00 0.00 0.00 63 1011.6
20260504020503 13 307 16.1 20.9 0.00 0.00 0.00 62 1011.4
20260504020004 14 305 17.7 20.9 0.00 0.00 0.00 62 1011.5
20260504015504 14 309 17.7 27.4 0.00 0.00 0.00 61 1011.7
20260504015004 14 308 16.1 22.5 0.00 0.00 0.00 61 1011.5
20260504014503 15 306 14.5 24.1 0.00 0.00 0.00 60 1011.6
20260504014003 15 309 14.5 19.3 0.00 0.00 0.00 59 1011.6
20260504013503 15 278 14.5 17.7 0.00 0.00 0.00 59 1011.6
20260504013003 15 283 14.5 24.1 0.00 0.00 0.00 59 1011.6
20260504012003 15 302 14.5 24.1 0.00 0.00 0.00 59 1011.6
20260504011504 15 314 14.5 29.0 0.00 0.00 0.00 58 1011.5
20260504011003 16 298 17.7 20.9 0.00 0.00 0.00 57 1011.6
20260504010503 16 280 16.1 22.5 0.00 0.00 0.00 57 1011.5
20260504010005 16 310 16.1 27.4 0.00 0.00 0.00 57 1011.6
20260504005504 16 298 16.1 19.3 0.00 0.00 0.00 57 1011.8
20260504005004 16 307 16.1 22.5 0.00 0.00 0.00 56 1011.7
20260504004503 16 304 16.1 24.1 0.00 0.00 0.00 57 1011.7
20260504004003 15 312 14.5 30.6 0.00 0.00 0.00 56 1011.6
20260504003503 16 316 16.1 22.5 0.00 0.00 0.00 56 1011.6
20260504003004 16 294 16.1 19.3 0.00 0.00 0.00 56 1011.5
20260504002003 16 291 14.5 25.7 0.00 0.00 0.00 56 1011.4
20260504001504 16 300 16.1 22.5 0.00 0.00 0.00 57 1011.4
20260504001003 16 309 17.7 25.7 0.00 0.00 0.00 57 1011.4
20260504000504 16 299 16.1 22.5 0.00 0.00 0.00 57 1011.3
20260504000003 16 299 17.7 22.5 0.00 0.00 0.00 56 1011.6